Malmstrom AFB, MT

8:45 PM MDT on August 16, 2017 (GMT -0600)
Malmstrom AFB

Weather History for KGFA - September, 2013

Change the Weather History Date:

Saturday, September 7, 2013

  Actual Average (KGTF) Record (KGTF)
Temperature  
Mean Temperature 68 °F -  
Max Temperature 73 °F 75 °F 95 °F (1998)
Min Temperature 61 °F 46 °F 27 °F (1929)
Cooling Degree Days 2    
Growing Degree Days 18 (Base 50)    
Moisture  
Dew Point 59 °F    
Average Humidity 80    
Maximum Humidity 94    
Minimum Humidity 59    
Precipitation  
Precipitation 0.04 in - - ()
Sea Level Pressure  
Sea Level Pressure 30.11 in    
Wind  
Wind Speed 4 mph (North)    
Max Wind Speed 13 mph    
Max Gust Speed -    
Visibility 10 miles    
Events Rain    
Averages and records for this station are not official NWS values.
T = Trace of Precipitation, MM = Missing Value Source: NWS Daily Summary

Daily Weather History Graph

Daily Weather History Graph

Search for Another Location

Airport or City:

Trip Planner

Search our weather history database for the weather conditions in past years. The results will help you decide how hot, cold, wet, or windy it might be!

Date:

Astronomy

Sep. 07, 2013 Rise Set
Actual Time 6:51 AM MDT 7:52 PM MDT
Civil Twilight 6:20 AM MDT 8:23 PM MDT
Nautical Twilight 5:42 AM MDT 9:01 PM MDT
Astronomical Twilight 5:02 AM MDT 9:40 PM MDT
Moon 9:23 AM MDT (9/7) 8:37 PM MDT (9/7)
Length of Visible Light 14h 03m
Length of Day
13h 00m
Waxing Crescent, 5% of the Moon is Illuminated
Sep 7
Waxing Crescent
Sep 12
First Quarter
Sep 19
Full
Sep 26
Last Quarter
Oct 4
New

Hourly Weather History & Observations

Time (MDT) Temp. Dew Point Humidity Pressure Visibility Wind Dir Wind Speed Gust Speed Precip Events Conditions
12:56 AM 63.0 °F 60.1 °F 90% 30.07 in 10.0 mi SSW 3.5 mph - 0.04 in   Mostly Cloudy
1:17 AM 62.6 °F 60.8 °F 94% 30.09 in 10.0 mi WSW 3.5 mph - N/A   Mostly Cloudy
1:29 AM 62.6 °F 60.8 °F 94% 30.09 in 10.0 mi West 3.5 mph - N/A   Mostly Cloudy
1:54 AM 62.6 °F 60.8 °F 94% 30.10 in 10.0 mi NW 5.8 mph - N/A   Overcast
1:56 AM 63.0 °F 60.1 °F 90% 30.09 in 10.0 mi NW 4.6 mph - N/A   Overcast
2:34 AM 62.6 °F 59.0 °F 88% 30.10 in 10.0 mi NW 3.5 mph - N/A   Overcast
2:44 AM 62.6 °F 60.8 °F 94% 30.10 in 10.0 mi Calm Calm - N/A   Overcast
2:56 AM 63.0 °F 60.1 °F 90% 30.09 in 10.0 mi Calm Calm - N/A   Overcast
3:18 AM 62.6 °F 60.8 °F 94% 30.11 in 10.0 mi Calm Calm - N/A   Overcast
3:34 AM 62.6 °F 60.8 °F 94% 30.11 in 10.0 mi Calm Calm - N/A   Overcast
3:56 AM 63.0 °F 60.1 °F 90% 30.10 in 10.0 mi Calm Calm - N/A   Overcast
4:56 AM 64.0 °F 59.0 °F 84% 30.10 in 10.0 mi East 4.6 mph - N/A   Overcast
5:56 AM 63.0 °F 59.0 °F 87% 30.12 in 10.0 mi ENE 5.8 mph - N/A   Overcast
6:56 AM 62.1 °F 59.0 °F 90% 30.13 in 10.0 mi North 4.6 mph - N/A   Mostly Cloudy
7:56 AM 62.1 °F 59.0 °F 90% 30.15 in 10.0 mi North 3.5 mph - N/A   Scattered Clouds
8:02 AM 62.6 °F 59.0 °F 88% 30.12 in 10.0 mi North 5.8 mph - N/A   Mostly Cloudy
8:56 AM 62.1 °F 55.9 °F 80% 30.15 in 10.0 mi North 8.1 mph - N/A   Mostly Cloudy
9:56 AM 63.0 °F 55.9 °F 78% 30.17 in 10.0 mi Calm Calm - N/A   Overcast
10:43 AM 62.6 °F 57.2 °F 82% 30.14 in 10.0 mi North 3.5 mph - N/A   Overcast
10:56 AM 63.0 °F 57.0 °F 81% 30.18 in 10.0 mi Calm Calm - N/A   Overcast
11:56 AM 64.9 °F 59.0 °F 81% 30.17 in 10.0 mi Calm Calm - N/A   Overcast
12:38 PM 66.2 °F 57.2 °F 73% 30.13 in 10.0 mi Calm Calm - N/A   Overcast
12:56 PM 66.0 °F 59.0 °F 78% 30.15 in 10.0 mi Calm Calm - N/A   Overcast
1:34 PM 69.8 °F 57.2 °F 64% 30.10 in 10.0 mi Calm Calm - N/A   Scattered Clouds
1:43 PM 69.8 °F 57.2 °F 64% 30.10 in 10.0 mi North 5.8 mph - N/A   Mostly Cloudy
1:56 PM 69.1 °F 57.9 °F 68% 30.13 in 10.0 mi NE 3.5 mph - N/A   Mostly Cloudy
2:56 PM 71.1 °F 57.9 °F 63% 30.12 in 10.0 mi Variable 5.8 mph - N/A   Overcast
3:14 PM 71.6 °F 57.2 °F 60% 30.09 in 10.0 mi NNE 4.6 mph - N/A   Overcast
3:56 PM 73.0 °F 57.9 °F 59% 30.08 in 10.0 mi NNE 5.8 mph - N/A   Scattered Clouds
4:56 PM 72.0 °F 59.0 °F 64% 30.06 in 10.0 mi North 9.2 mph - N/A   Mostly Cloudy
5:56 PM 71.1 °F 59.0 °F 66% 30.06 in 10.0 mi North 9.2 mph - N/A   Scattered Clouds
6:56 PM 71.1 °F 59.0 °F 66% 30.05 in 10.0 mi North 6.9 mph - N/A   Clear
7:56 PM 69.1 °F 59.0 °F 70% 30.06 in 10.0 mi NNE 10.4 mph - N/A   Scattered Clouds
8:56 PM 66.0 °F 61.0 °F 84% 30.08 in 10.0 mi East 11.5 mph - 0.00 in Rain Light Rain
9:56 PM 64.9 °F 61.0 °F 87% 30.07 in 10.0 mi NE 3.5 mph - 0.00 in   Scattered Clouds
10:56 PM 63.0 °F 57.9 °F 84% 30.09 in 10.0 mi SE 10.4 mph - N/A   Clear
11:56 PM 61.0 °F 53.1 °F 75% 30.08 in 10.0 mi ESE 12.7 mph - N/A   Clear